CW1172 Weather Reports


time (UTC)temp
C
wind
direction
speed
KPH
gust
KPH
rain 1hr
cm
rain 24hr
cm
rain mn
cm
humidity
%
barometer
mb
20260902031553 15 196 0.0 0.0 0.00 0.00 0.05 91 1009.0
20260902030051 15 202 0.0 0.0 0.00 0.00 0.05 90 1009.2
20260902024556 15 360 0.0 0.0 0.00 0.00 0.05 90 1009.3
20260902023053 15 201 0.0 0.0 0.00 0.00 0.05 89 1009.3
20260902021553 15 219 0.0 0.0 0.00 0.00 0.00 87 1009.3
20260902020051 15 246 0.0 0.0 0.00 0.00 0.00 85 1009.5
20260902014546 15 209 0.0 0.0 0.00 0.00 0.00 84 1009.7
20260902013045 15 246 0.0 0.0 0.00 0.00 0.00 84 1009.7
20260902011545 15 202 0.0 0.0 0.00 0.00 0.00 84 1009.8
20260902010045 15 250 0.0 0.0 0.00 0.00 0.00 84 1009.8
20260902004543 14 360 0.0 0.0 0.00 0.00 0.00 84 1009.9
20260902003042 14 220 0.0 0.0 0.00 0.00 0.00 84 1009.9
20260902001542 14 247 0.0 0.0 0.00 0.00 0.00 84 1009.9
20260902000042 14 201 0.0 0.0 0.00 0.00 0.00 84 1009.9
20260901234541 14 226 0.0 0.0 0.00 0.00 0.00 84 1010.0
20260901233040 14 197 0.0 0.0 0.00 0.00 0.00 84 1010.0
20260901231540 14 218 0.0 0.0 0.00 0.00 0.00 84 1010.2
20260901230040 14 211 0.0 0.0 0.00 0.00 0.00 83 1010.1
20260901224538 15 190 0.0 0.0 0.00 0.00 0.00 82 1010.0
20260901223042 15 203 0.0 0.0 0.00 0.00 0.00 82 1010.3
20260901221534 15 171 0.0 0.0 0.00 0.00 0.00 82 1010.3
20260901220037 15 228 0.0 0.0 0.00 0.00 0.00 82 1010.3
20260901214535 15 217 0.0 0.0 0.00 0.00 0.00 82 1010.1
20260901213044 15 212 0.0 0.0 0.00 0.00 0.00 82 1010.1
20260901211531 15 188 0.0 0.0 0.00 0.00 0.00 82 1009.9
20260901210033 15 261 0.0 0.0 0.00 0.00 0.00 83 1010.0
20260901204536 15 214 0.0 0.0 0.00 0.00 0.00 84 1009.9
20260901203034 16 215 0.0 0.0 0.00 0.00 0.00 84 1009.8
20260901201531 16 238 0.0 0.0 0.00 0.00 0.00 84 1009.8
20260901200030 16 235 0.0 0.0 0.00 0.00 0.00 84 1009.8
20260901194529 16 196 0.0 0.0 0.00 0.00 0.00 85 1009.8
20260901193030 16 205 0.0 0.0 0.00 0.00 0.00 86 1009.7
20260901191529 16 248 0.0 0.0 0.00 0.00 0.00 86 1009.6
20260901190028 16 200 0.0 0.0 0.00 0.00 0.00 85 1009.7
20260901184539 16 360 0.0 0.0 0.00 0.00 0.00 85 1009.7
20260901183033 16 202 0.0 0.0 0.00 0.00 0.00 84 1009.6
20260901181532 16 240 0.0 0.0 0.00 0.00 0.00 84 1009.7
20260901180026 16 202 0.0 0.0 0.00 0.00 0.00 83 1009.6
20260901174526 16 229 0.0 0.0 0.00 0.00 0.00 82 1009.6
20260901173024 16 214 0.0 0.0 0.00 0.00 0.00 82 1009.5
20260901171524 16 250 0.0 0.0 0.00 0.00 0.00 81 1009.3
20260901170024 16 217 0.0 0.0 0.00 0.00 0.00 81 1009.4
20260901164523 16 360 0.0 0.0 0.00 0.00 0.00 81 1009.3
20260901163022 16 360 0.0 0.0 0.00 0.00 0.00 80 1009.3
20260901161526 16 245 0.0 0.0 0.00 0.00 0.00 79 1009.2
20260901160024 17 234 0.0 0.0 0.00 0.00 0.00 78 1009.2
20260901154521 17 360 0.0 0.0 0.00 0.00 0.00 78 1009.1
20260901153022 17 199 0.0 0.0 0.00 0.00 0.00 77 1009.1
20260901151521 17 225 0.0 0.0 0.00 0.00 0.00 77 1009.0
20260901150021 17 255 0.0 0.0 0.00 0.00 0.00 78 1009.1
20260901144520 18 205 0.0 0.0 0.00 0.00 0.00 76 1009.1
20260901143020 18 232 0.0 0.0 0.00 0.00 0.00 76 1009.0
20260901141532 18 221 0.0 0.0 0.00 0.00 0.00 76 1009.0
20260901140020 18 360 0.0 0.0 0.00 0.00 0.00 75 1009.0
20260901134521 19 207 0.0 0.0 0.00 0.00 0.00 74 1009.0
20260901133020 19 253 0.0 0.0 0.00 0.00 0.00 72 1009.0
20260901131520 20 249 0.0 0.0 0.00 0.00 0.00 72 1009.1
20260901130020 18 206 0.0 0.0 0.00 0.00 0.00 74 1009.0
20260901124518 18 229 0.0 0.0 0.00 0.00 0.00 74 1009.0
20260901123018 19 171 0.0 0.0 0.00 0.00 0.00 75 1009.0
20260901121518 18 225 0.0 0.0 0.00 0.00 0.00 74 1008.9
20260901120019 18 360 0.0 0.0 0.00 0.00 0.00 76 1008.8
20260901114519 19 360 0.0 0.0 0.00 0.00 0.00 72 1008.9
20260901113017 20 233 0.0 0.0 0.00 0.00 0.00 72 1008.8
20260901111517 20 250 0.0 0.0 0.00 0.00 0.00 74 1008.6
20260901110017 20 234 0.0 0.0 0.00 0.00 0.00 74 1008.5
20260901104515 20 257 0.0 0.0 0.00 0.00 0.00 74 1008.5
20260901103014 20 209 0.0 0.0 0.00 0.00 0.00 70 1008.4
20260901101513 20 201 0.0 0.0 0.00 0.00 0.00 71 1008.2
20260901100012 20 181 0.0 0.0 0.00 0.00 0.00 71 1008.1
20260901094509 20 251 0.0 0.0 0.00 0.00 0.00 73 1007.8
20260901093006 19 253 0.0 0.0 0.00 0.00 0.00 72 1007.8
20260901091506 19 220 0.0 0.0 0.00 0.00 0.00 73 1007.8
20260901090007 19 203 0.0 0.0 0.00 0.00 0.00 75 1007.8
20260901084505 18 207 0.0 0.0 0.00 0.00 0.00 77 1007.8
20260901083006 19 60 0.0 0.0 0.00 0.00 0.00 78 1007.7
20260901081503 19 161 0.0 0.0 0.00 0.00 0.00 79 1007.6
20260901080100 18 182 0.0 0.0 0.00 0.00 0.00 83 1007.5
20260901074609 17 223 0.0 0.0 0.00 0.00 0.00 85 1007.6
20260901073059 17 225 0.0 0.0 0.00 0.00 0.00 86 1007.5
20260901071555 17 125 0.0 0.0 0.00 0.00 0.00 89 1007.5
20260901070055 17 125 0.0 0.0 0.00 0.00 0.00 93 1007.4
20260901064551 16 125 0.0 0.0 0.00 0.00 0.00 94 1007.3
20260901063048 15 126 0.0 0.0 0.00 0.00 0.00 95 1007.3
20260901061544 14 126 0.0 0.0 0.00 0.00 0.00 94 1007.3
20260901060043 13 126 0.0 0.0 0.00 0.00 0.00 94 1007.1
20260901054542 13 125 0.0 0.0 0.00 0.00 0.00 94 1007.1
20260901053050 13 125 0.0 0.0 0.00 0.00 0.00 94 1007.1
20260901051541 13 126 0.0 0.0 0.00 0.00 0.00 94 1007.1
20260901050041 13 126 0.0 0.0 0.00 0.00 0.00 94 1007.1
20260901044540 13 125 0.0 0.0 0.00 0.00 0.00 94 1006.9
20260901043039 13 126 0.0 0.0 0.00 0.00 0.00 93 1006.8
20260901041543 13 126 0.0 0.0 0.00 0.00 0.00 93 1006.6
20260901040043 13 125 0.0 0.0 0.00 0.00 0.00 93 1006.5
20260901034536 14 126 0.0 0.0 0.00 0.00 0.00 93 1006.4
20260901033035 14 125 0.0 0.0 0.00 0.00 0.00 93 1006.4